| time (UTC) | temp F | wind direction | speed MPH | gust MPH | rain 1hr in | rain 24hr in | rain mn in | humidity % | barometer mb |
| 20260506150727 | 56 | 197 | 2.0 | 5.0 | 0.00 | 0.00 | 0.00 | 91 | 1012.9 |
| 20260506150225 | 56 | 253 | 2.0 | 8.0 | 0.00 | 0.00 | 0.00 | 91 | 1012.9 |
| 20260506145722 | 57 | 254 | 5.0 | 5.0 | 0.00 | 0.00 | 0.00 | 91 | 1012.6 |
| 20260506145218 | 57 | 221 | 2.0 | 2.0 | 0.00 | 0.00 | 0.00 | 91 | 1012.8 |
| 20260506144716 | 57 | 233 | 2.0 | 5.0 | 0.00 | 0.00 | 0.00 | 91 | 1012.8 |
| 20260506144212 | 57 | 58 | 1.0 | 4.0 | 0.00 | 0.00 | 0.00 | 91 | 1012.4 |
| 20260506143710 | 57 | 235 | 4.0 | 4.0 | 0.00 | 0.00 | 0.00 | 91 | 1012.5 |
| 20260506143208 | 57 | 241 | 4.0 | 4.0 | 0.00 | 0.00 | 0.00 | 91 | 1012.2 |
| 20260506142706 | 57 | 217 | 4.0 | 6.0 | 0.00 | 0.00 | 0.00 | 91 | 1012.3 |
| 20260506142203 | 57 | 218 | 2.0 | 4.0 | 0.00 | 0.00 | 0.00 | 92 | 1012.1 |
| 20260506141701 | 56 | 232 | 4.0 | 6.0 | 0.00 | 0.00 | 0.00 | 92 | 1012.0 |
| 20260506141159 | 56 | 145 | 2.0 | 4.0 | 0.00 | 0.00 | 0.00 | 92 | 1012.2 |
| 20260506140656 | 56 | 219 | 0.0 | 5.0 | 0.00 | 0.00 | 0.00 | 92 | 1011.7 |
| 20260506140153 | 56 | 238 | 2.0 | 8.0 | 0.00 | 0.00 | 0.00 | 92 | 1011.9 |
| 20260506135650 | 57 | 284 | 0.0 | 5.0 | 0.00 | 0.00 | 0.00 | 92 | 1011.9 |
| 20260506135146 | 57 | 178 | 2.0 | 4.0 | 0.00 | 0.00 | 0.00 | 92 | 1011.9 |
| 20260506134643 | 57 | 142 | 2.0 | 4.0 | 0.00 | 0.00 | 0.00 | 93 | 1011.6 |
| 20260506134139 | 56 | 273 | 0.0 | 4.0 | 0.00 | 0.00 | 0.00 | 93 | 1011.5 |
| 20260506133637 | 56 | 267 | 1.0 | 4.0 | 0.00 | 0.00 | 0.00 | 93 | 1011.4 |
| 20260506133133 | 56 | 216 | 2.0 | 4.0 | 0.00 | 0.00 | 0.00 | 93 | 1011.4 |
| 20260506132631 | 56 | 312 | 1.0 | 4.0 | 0.00 | 0.00 | 0.00 | 95 | 1011.5 |
| 20260506132127 | 56 | 208 | 2.0 | 3.0 | 0.00 | 0.00 | 0.00 | 95 | 1011.6 |
| 20260506131625 | 56 | 237 | 4.0 | 5.0 | 0.00 | 0.00 | 0.00 | 96 | 1011.4 |
| 20260506131121 | 56 | 182 | 2.0 | 6.0 | 0.00 | 0.00 | 0.00 | 96 | 1011.5 |
| 20260506130618 | 56 | 211 | 3.0 | 5.0 | 0.00 | 0.00 | 0.00 | 96 | 1011.3 |
| 20260506130116 | 56 | 273 | 1.0 | 2.0 | 0.00 | 0.00 | 0.00 | 96 | 1011.3 |
| 20260506125614 | 57 | 247 | 1.0 | 5.0 | 0.00 | 0.00 | 0.00 | 97 | 1011.2 |
| 20260506125111 | 57 | 291 | 0.0 | 3.0 | 0.00 | 0.00 | 0.00 | 97 | 1011.2 |
| 20260506124609 | 57 | 259 | 2.0 | 6.0 | 0.00 | 0.00 | 0.00 | 97 | 1011.1 |
| 20260506124107 | 57 | 256 | 5.0 | 6.0 | 0.00 | 0.00 | 0.00 | 97 | 1011.0 |
| 20260506123604 | 57 | 216 | 4.0 | 4.0 | 0.00 | 0.00 | 0.00 | 97 | 1011.0 |
| 20260506123102 | 57 | 265 | 4.0 | 5.0 | 0.00 | 0.00 | 0.00 | 97 | 1011.1 |
| 20260506122558 | 57 | 311 | 1.0 | 5.0 | 0.00 | 0.00 | 0.00 | 97 | 1010.9 |
| 20260506122057 | 57 | 226 | 4.0 | 4.0 | 0.00 | 0.00 | 0.00 | 97 | 1010.9 |
| 20260506121554 | 57 | 101 | 3.0 | 3.0 | 0.00 | 0.00 | 0.00 | 97 | 1010.7 |
| 20260506121050 | 57 | 188 | 0.0 | 4.0 | 0.00 | 0.00 | 0.00 | 97 | 1010.6 |
| 20260506120548 | 58 | 210 | 3.0 | 4.0 | 0.00 | 0.00 | 0.00 | 97 | 1010.5 |
| 20260506120045 | 58 | 300 | 0.0 | 3.0 | 0.00 | 0.00 | 0.00 | 98 | 1010.3 |
| 20260506115543 | 58 | 211 | 0.0 | 5.0 | 0.00 | 0.00 | 0.00 | 97 | 1010.2 |
| 20260506115041 | 58 | 166 | 0.0 | 2.0 | 0.00 | 0.00 | 0.00 | 98 | 1010.1 |
| 20260506114538 | 59 | 223 | 0.0 | 3.0 | 0.00 | 0.00 | 0.00 | 98 | 1010.0 |
| 20260506114037 | 59 | 240 | 1.0 | 2.0 | 0.00 | 0.00 | 0.00 | 98 | 1010.0 |
| 20260506113534 | 59 | 215 | 2.0 | 3.0 | 0.00 | 0.00 | 0.00 | 98 | 1010.1 |
| 20260506113031 | 59 | 237 | 2.0 | 2.0 | 0.00 | 0.00 | 0.00 | 98 | 1009.7 |
| 20260506112528 | 59 | 151 | 0.0 | 2.0 | 0.00 | 0.00 | 0.00 | 98 | 1009.6 |
| 20260506112025 | 59 | 233 | 0.0 | 2.0 | 0.00 | 0.00 | 0.00 | 98 | 1009.5 |
| 20260506111523 | 59 | 229 | 3.0 | 4.0 | 0.00 | 0.00 | 0.00 | 98 | 1009.7 |
| 20260506111020 | 59 | 246 | 1.0 | 2.0 | 0.00 | 0.00 | 0.00 | 98 | 1009.6 |
| 20260506110518 | 59 | 210 | 0.0 | 2.0 | 0.00 | 0.00 | 0.00 | 97 | 1009.3 |
| 20260506110015 | 59 | 110 | 0.0 | 2.0 | 0.02 | 0.00 | 0.00 | 97 | 1009.2 |
| 20260506105511 | 59 | 240 | 2.0 | 4.0 | 0.00 | 0.00 | 0.00 | 97 | 1009.2 |
| 20260506105008 | 59 | 242 | 0.0 | 2.0 | 0.00 | 0.00 | 0.00 | 96 | 1009.4 |
| 20260506104506 | 60 | 278 | 0.0 | 3.0 | 0.00 | 0.00 | 0.00 | 95 | 1009.2 |
| 20260506104004 | 60 | 235 | 1.0 | 2.0 | 0.00 | 0.00 | 0.00 | 94 | 1009.0 |
| 20260506103501 | 60 | 301 | 0.0 | 3.0 | 0.00 | 0.00 | 0.00 | 93 | 1009.0 |
| 20260506102957 | 60 | 163 | 1.0 | 4.0 | 0.00 | 0.00 | 0.00 | 92 | 1008.9 |
| 20260506102456 | 60 | 265 | 3.0 | 3.0 | 0.00 | 0.00 | 0.00 | 92 | 1009.0 |
| 20260506101953 | 60 | 69 | 2.0 | 4.0 | 0.00 | 0.00 | 0.00 | 92 | 1008.9 |
| 20260506101449 | 61 | 210 | 2.0 | 4.0 | 0.00 | 0.00 | 0.00 | 91 | 1008.7 |
| 20260506100946 | 61 | 127 | 2.0 | 4.0 | 0.00 | 0.00 | 0.00 | 91 | 1008.9 |
| 20260506100445 | 62 | 224 | 1.0 | 4.0 | 0.00 | 0.00 | 0.00 | 92 | 1008.6 |
| 20260506095942 | 62 | 209 | 0.0 | 3.0 | 0.00 | 0.00 | 0.00 | 92 | 1008.5 |
| 20260506095441 | 62 | 138 | 1.0 | 2.0 | 0.00 | 0.00 | 0.00 | 92 | 1008.3 |
| 20260506094936 | 62 | 244 | 2.0 | 3.0 | 0.00 | 0.00 | 0.00 | 92 | 1008.4 |
| 20260506094435 | 62 | 214 | 2.0 | 4.0 | 0.00 | 0.00 | 0.00 | 91 | 1008.3 |
| 20260506093932 | 62 | 153 | 0.0 | 4.0 | 0.00 | 0.00 | 0.00 | 91 | 1008.4 |
| 20260506093430 | 62 | 313 | 0.0 | 3.0 | 0.00 | 0.00 | 0.00 | 90 | 1008.2 |
| 20260506092928 | 63 | 234 | 3.0 | 3.0 | 0.00 | 0.00 | 0.00 | 89 | 1008.2 |
| 20260506092426 | 63 | 222 | 2.0 | 3.0 | 0.00 | 0.00 | 0.00 | 89 | 1008.3 |
| 20260506091922 | 64 | 185 | 0.0 | 0.0 | 0.00 | 0.00 | 0.00 | 89 | 1008.4 |
| 20260506091420 | 64 | 166 | 2.0 | 3.0 | 0.00 | 0.00 | 0.00 | 89 | 1008.4 |
| 20260506090917 | 64 | 265 | 2.0 | 3.0 | 0.00 | 0.00 | 0.00 | 87 | 1008.4 |
| 20260506090415 | 64 | 329 | 0.0 | 4.0 | 0.00 | 0.00 | 0.00 | 86 | 1008.4 |
| 20260506085911 | 65 | 230 | 2.0 | 2.0 | 0.00 | 0.00 | 0.00 | 86 | 1008.3 |
| 20260506085408 | 65 | 243 | 2.0 | 3.0 | 0.00 | 0.00 | 0.00 | 85 | 1008.1 |
| 20260506084904 | 66 | 233 | 4.0 | 7.0 | 0.00 | 0.00 | 0.00 | 85 | 1008.4 |
| 20260506084401 | 66 | 200 | 0.0 | 3.0 | 0.00 | 0.00 | 0.00 | 84 | 1008.3 |
| 20260506083857 | 66 | 201 | 1.0 | 5.0 | 0.00 | 0.00 | 0.00 | 84 | 1008.2 |
| 20260506083355 | 66 | 0 | 0.0 | 5.0 | 0.00 | 0.00 | 0.00 | 84 | 1008.2 |
| 20260506082852 | 67 | 240 | 2.0 | 9.0 | 0.00 | 0.00 | 0.00 | 83 | 1008.2 |
| 20260506082349 | 67 | 239 | 2.0 | 4.0 | 0.00 | 0.00 | 0.00 | 83 | 1007.9 |
| 20260506081844 | 68 | 220 | 2.0 | 5.0 | 0.00 | 0.00 | 0.00 | 83 | 1007.8 |
| 20260506081343 | 69 | 255 | 4.0 | 10.0 | 0.00 | 0.00 | 0.00 | 83 | 1007.9 |
| 20260506080840 | 71 | 267 | 4.0 | 10.0 | 0.00 | 0.00 | 0.00 | 82 | 1007.8 |
| 20260506080337 | 75 | 269 | 0.0 | 3.0 | 0.00 | 0.00 | 0.00 | 91 | 1007.7 |
| 20260506073321 | 75 | 359 | 0.0 | 3.0 | 0.00 | 0.00 | 0.00 | 91 | 1007.7 |
| 20260506072818 | 75 | 272 | 2.0 | 2.0 | 0.00 | 0.00 | 0.00 | 91 | 1007.9 |
| 20260506072315 | 75 | 195 | 0.0 | 5.0 | 0.00 | 0.00 | 0.00 | 91 | 1007.7 |
| 20260506071813 | 75 | 122 | 0.0 | 2.0 | 0.00 | 0.00 | 0.00 | 91 | 1007.5 |
| 20260506071311 | 75 | 214 | 2.0 | 3.0 | 0.00 | 0.00 | 0.00 | 91 | 1007.8 |
| 20260506070808 | 75 | 222 | 2.0 | 2.0 | 0.00 | 0.00 | 0.00 | 91 | 1007.9 |
| 20260506070305 | 75 | 0 | 0.0 | 2.0 | 0.00 | 0.00 | 0.00 | 91 | 1007.9 |
| 20260506062242 | 76 | 251 | 2.0 | 2.0 | 0.00 | 0.00 | 0.00 | 90 | 1007.6 |
| 20260506061737 | 76 | 261 | 2.0 | 3.0 | 0.00 | 0.00 | 0.00 | 90 | 1007.8 |
| 20260506061235 | 76 | 249 | 2.0 | 3.0 | 0.00 | 0.00 | 0.00 | 90 | 1007.9 |
| 20260506060733 | 76 | 171 | 0.0 | 1.0 | 0.00 | 0.00 | 0.00 | 90 | 1008.0 |
| 20260506060230 | 76 | 264 | 2.0 | 2.0 | 0.00 | 0.00 | 0.00 | 90 | 1007.9 |
| 20260506051202 | 77 | 246 | 3.0 | 5.0 | 0.00 | 0.00 | 0.00 | 87 | 1007.6 |
| 20260506050701 | 76 | 226 | 1.0 | 4.0 | 0.00 | 0.00 | 0.00 | 87 | 1007.5 |
| 20260506050157 | 76 | 233 | 1.0 | 5.0 | 0.00 | 0.00 | 0.00 | 88 | 1007.6 |
| 20260506044648 | 77 | 304 | 2.0 | 3.0 | 0.00 | 0.00 | 0.00 | 87 | 1007.3 |
| 20260506044145 | 77 | 152 | 1.0 | 4.0 | 0.00 | 0.00 | 0.00 | 87 | 1007.1 |
| 20260506043642 | 77 | 299 | 2.0 | 3.0 | 0.00 | 0.00 | 0.00 | 87 | 1006.9 |
| 20260506043140 | 77 | 15 | 1.0 | 6.0 | 0.00 | 0.00 | 0.00 | 87 | 1007.2 |
| 20260506042639 | 77 | 150 | 2.0 | 3.0 | 0.00 | 0.00 | 0.00 | 87 | 1007.2 |
| 20260506042137 | 77 | 116 | 0.0 | 2.0 | 0.00 | 0.00 | 0.00 | 87 | 1007.2 |
| 20260506041635 | 77 | 112 | 1.0 | 3.0 | 0.00 | 0.00 | 0.00 | 87 | 1007.2 |
| 20260506041131 | 77 | 44 | 2.0 | 3.0 | 0.00 | 0.00 | 0.00 | 88 | 1007.4 |
| 20260506040629 | 77 | 313 | 0.0 | 3.0 | 0.00 | 0.00 | 0.00 | 88 | 1007.3 |
| 20260506040126 | 77 | 180 | 2.0 | 3.0 | 0.00 | 0.00 | 0.00 | 89 | 1007.2 |
| 20260506035623 | 76 | 245 | 2.0 | 3.0 | 0.00 | 0.00 | 0.00 | 89 | 1007.1 |
| 20260506035119 | 76 | 326 | 0.0 | 3.0 | 0.00 | 0.00 | 0.00 | 90 | 1006.9 |
| 20260506034616 | 76 | 172 | 2.0 | 5.0 | 0.00 | 0.00 | 0.00 | 91 | 1006.5 |
| 20260506034113 | 75 | 286 | 0.0 | 1.0 | 0.00 | 0.00 | 0.00 | 92 | 1006.7 |
| 20260506033610 | 75 | 353 | 1.0 | 2.0 | 0.00 | 0.00 | 0.00 | 93 | 1006.5 |
| 20260506033107 | 75 | 167 | 2.0 | 2.0 | 0.00 | 0.00 | 0.00 | 94 | 1006.4 |
| 20260506032605 | 75 | 336 | 0.0 | 0.0 | 0.00 | 0.00 | 0.00 | 93 | 1006.1 |
| 20260506032101 | 75 | 315 | 0.0 | 0.0 | 0.00 | 0.00 | 0.00 | 93 | 1006.2 |
| 20260506031559 | 75 | 269 | 0.0 | 0.0 | 0.00 | 0.00 | 0.00 | 92 | 1006.0 |
| 20260506031055 | 75 | 199 | 0.0 | 2.0 | 0.00 | 0.00 | 0.00 | 92 | 1006.0 |
| 20260506030554 | 75 | 297 | 0.0 | 0.0 | 0.00 | 0.00 | 0.00 | 92 | 1005.9 |
| 20260506030051 | 75 | 126 | 0.0 | 1.0 | 0.00 | 0.00 | 0.00 | 92 | 1005.9 |
| 20260506025548 | 75 | 256 | 0.0 | 1.0 | 0.00 | 0.00 | 0.00 | 93 | 1005.8 |
| 20260506025044 | 75 | 112 | 0.0 | 2.0 | 0.00 | 0.00 | 0.00 | 93 | 1005.6 |
| 20260506024541 | 74 | 309 | 0.0 | 1.0 | 0.00 | 0.00 | 0.00 | 94 | 1005.8 |
| 20260506024037 | 74 | 310 | 0.0 | 2.0 | 0.00 | 0.00 | 0.00 | 94 | 1005.8 |
| 20260506023534 | 74 | 333 | 0.0 | 1.0 | 0.00 | 0.00 | 0.00 | 94 | 1005.8 |
| 20260506023031 | 74 | 331 | 1.0 | 2.0 | 0.00 | 0.00 | 0.00 | 95 | 1005.8 |
| 20260506022529 | 74 | 0 | 0.0 | 0.0 | 0.00 | 0.00 | 0.00 | 94 | 1005.7 |
| 20260506022026 | 74 | 0 | 0.0 | 1.0 | 0.00 | 0.00 | 0.00 | 94 | 1005.7 |
| 20260506021523 | 74 | 129 | 0.0 | 0.0 | 0.00 | 0.00 | 0.00 | 94 | 1005.4 |
| 20260506021020 | 74 | 129 | 0.0 | 0.0 | 0.00 | 0.00 | 0.00 | 94 | 1005.2 |
| 20260506020518 | 74 | 154 | 0.0 | 0.0 | 0.00 | 0.00 | 0.00 | 94 | 1005.2 |
| 20260506020015 | 74 | 154 | 0.0 | 0.0 | 0.00 | 0.00 | 0.00 | 94 | 1005.3 |
| 20260506015512 | 74 | 217 | 0.0 | 0.0 | 0.00 | 0.00 | 0.00 | 93 | 1005.5 |
| 20260506015009 | 74 | 217 | 0.0 | 0.0 | 0.00 | 0.00 | 0.00 | 93 | 1005.6 |
| 20260506014507 | 74 | 217 | 0.0 | 0.0 | 0.00 | 0.00 | 0.00 | 92 | 1005.5 |
| 20260506014003 | 75 | 217 | 0.0 | 0.0 | 0.00 | 0.00 | 0.00 | 92 | 1005.5 |
| 20260506013501 | 75 | 217 | 0.0 | 0.0 | 0.00 | 0.00 | 0.00 | 92 | 1005.5 |
| 20260506012956 | 75 | 217 | 0.0 | 0.0 | 0.00 | 0.00 | 0.00 | 91 | 1005.4 |
| 20260506012453 | 75 | 217 | 0.0 | 0.0 | 0.00 | 0.00 | 0.00 | 91 | 1005.6 |
| 20260506011950 | 76 | 217 | 0.0 | 0.0 | 0.00 | 0.00 | 0.00 | 90 | 1005.4 |
| 20260506011447 | 76 | 217 | 0.0 | 0.0 | 0.00 | 0.00 | 0.00 | 89 | 1005.4 |
| 20260506010944 | 77 | 173 | 0.0 | 0.0 | 0.00 | 0.00 | 0.00 | 88 | 1005.3 |
| 20260506010443 | 77 | 173 | 0.0 | 0.0 | 0.00 | 0.00 | 0.00 | 87 | 1005.3 |
| 20260506005939 | 78 | 173 | 0.0 | 0.0 | 0.00 | 0.00 | 0.00 | 86 | 1005.0 |
| 20260506005437 | 78 | 129 | 0.0 | 0.0 | 0.00 | 0.00 | 0.00 | 85 | 1005.1 |
| 20260506004932 | 79 | 255 | 0.0 | 1.0 | 0.00 | 0.00 | 0.00 | 83 | 1005.1 |
| 20260506004430 | 79 | 255 | 0.0 | 1.0 | 0.00 | 0.00 | 0.00 | 83 | 1005.2 |
| 20260506003925 | 80 | 333 | 0.0 | 0.0 | 0.00 | 0.00 | 0.00 | 82 | 1005.2 |
| 20260506003422 | 80 | 318 | 2.0 | 2.0 | 0.00 | 0.00 | 0.00 | 80 | 1004.9 |
| 20260506002919 | 80 | 36 | 0.0 | 1.0 | 0.00 | 0.00 | 0.00 | 80 | 1004.8 |
| 20260506002415 | 81 | 313 | 1.0 | 1.0 | 0.00 | 0.00 | 0.00 | 79 | 1004.7 |
| 20260506001910 | 81 | 313 | 0.0 | 2.0 | 0.00 | 0.00 | 0.00 | 79 | 1004.7 |
| 20260506001408 | 81 | 304 | 0.0 | 2.0 | 0.00 | 0.00 | 0.00 | 77 | 1004.5 |
| 20260506000905 | 81 | 340 | 0.0 | 2.0 | 0.00 | 0.00 | 0.00 | 78 | 1004.3 |
| 20260506000403 | 82 | 195 | 1.0 | 2.0 | 0.00 | 0.00 | 0.00 | 76 | 1004.4 |
| 20260505235859 | 82 | 118 | 1.0 | 2.0 | 0.00 | 0.00 | 0.00 | 75 | 1004.7 |
| 20260505235357 | 82 | 62 | 0.0 | 3.0 | 0.00 | 0.00 | 0.00 | 75 | 1004.7 |
| 20260505234853 | 83 | 259 | 1.0 | 3.0 | 0.00 | 0.00 | 0.00 | 74 | 1004.4 |
| 20260505234351 | 83 | 326 | 0.0 | 2.0 | 0.00 | 0.00 | 0.00 | 76 | 1004.7 |
| 20260505233848 | 84 | 306 | 4.0 | 4.0 | 0.00 | 0.00 | 0.00 | 73 | 1004.5 |
| 20260505233346 | 84 | 240 | 0.0 | 4.0 | 0.00 | 0.00 | 0.00 | 74 | 1004.5 |
| 20260505232843 | 84 | 304 | 0.0 | 2.0 | 0.00 | 0.00 | 0.00 | 74 | 1004.3 |
| 20260505232341 | 83 | 256 | 2.0 | 2.0 | 0.00 | 0.00 | 0.00 | 75 | 1004.4 |
| 20260505231837 | 83 | 13 | 0.0 | 1.0 | 0.00 | 0.00 | 0.00 | 76 | 1004.7 |
| 20260505231335 | 83 | 261 | 2.0 | 3.0 | 0.00 | 0.00 | 0.00 | 73 | 1004.5 |
| 20260505230833 | 84 | 168 | 0.0 | 4.0 | 0.00 | 0.00 | 0.00 | 72 | 1004.4 |
| 20260505230330 | 84 | 296 | 1.0 | 4.0 | 0.00 | 0.00 | 0.00 | 72 | 1004.5 |
| 20260505225826 | 84 | 109 | 2.0 | 4.0 | 0.00 | 0.00 | 0.00 | 73 | 1004.5 |
| 20260505225324 | 84 | 347 | 0.0 | 2.0 | 0.00 | 0.00 | 0.00 | 72 | 1004.5 |
| 20260505224819 | 84 | 265 | 3.0 | 3.0 | 0.00 | 0.00 | 0.00 | 73 | 1004.4 |
| 20260505224317 | 83 | 324 | 1.0 | 2.0 | 0.00 | 0.00 | 0.00 | 74 | 1004.3 |
| 20260505223814 | 84 | 189 | 2.0 | 4.0 | 0.00 | 0.00 | 0.00 | 73 | 1004.3 |
| 20260505223311 | 84 | 315 | 2.0 | 4.0 | 0.00 | 0.00 | 0.00 | 73 | 1004.2 |
| 20260505222806 | 83 | 285 | 0.0 | 3.0 | 0.00 | 0.00 | 0.00 | 74 | 1004.1 |
| 20260505222305 | 84 | 309 | 2.0 | 3.0 | 0.00 | 0.00 | 0.00 | 71 | 1004.3 |
| 20260505221800 | 85 | 285 | 1.0 | 4.0 | 0.00 | 0.00 | 0.00 | 70 | 1004.2 |
| 20260505221257 | 86 | 225 | 2.0 | 5.0 | 0.00 | 0.00 | 0.00 | 71 | 1004.3 |
| 20260505220754 | 86 | 306 | 0.0 | 4.0 | 0.00 | 0.00 | 0.00 | 69 | 1004.2 |
| 20260505220251 | 85 | 264 | 3.0 | 12.0 | 0.00 | 0.00 | 0.00 | 69 | 1004.1 |
| 20260505215749 | 85 | 271 | 2.0 | 3.0 | 0.00 | 0.00 | 0.00 | 69 | 1004.1 |
| 20260505215246 | 86 | 204 | 1.0 | 4.0 | 0.00 | 0.00 | 0.00 | 70 | 1004.2 |
| 20260505214744 | 86 | 170 | 3.0 | 4.0 | 0.00 | 0.00 | 0.00 | 67 | 1004.2 |
| 20260505214241 | 86 | 101 | 0.0 | 7.0 | 0.00 | 0.00 | 0.00 | 68 | 1004.4 |
| 20260505213738 | 85 | 279 | 4.0 | 6.0 | 0.00 | 0.00 | 0.00 | 69 | 1004.7 |
| 20260505213236 | 86 | 351 | 3.0 | 7.0 | 0.00 | 0.00 | 0.00 | 67 | 1004.8 |
| 20260505212731 | 86 | 153 | 7.0 | 11.0 | 0.00 | 0.00 | 0.00 | 67 | 1004.8 |
| 20260505212229 | 85 | 186 | 0.0 | 6.0 | 0.00 | 0.00 | 0.00 | 71 | 1005.0 |
| 20260505211726 | 84 | 259 | 3.0 | 4.0 | 0.00 | 0.00 | 0.00 | 69 | 1004.9 |
| 20260505211223 | 84 | 264 | 3.0 | 8.0 | 0.00 | 0.00 | 0.00 | 70 | 1005.1 |
| 20260505210719 | 85 | 21 | 7.0 | 8.0 | 0.00 | 0.00 | 0.00 | 68 | 1005.1 |
| 20260505210216 | 86 | 279 | 4.0 | 7.0 | 0.00 | 0.00 | 0.00 | 68 | 1005.4 |
| 20260505205714 | 85 | 246 | 2.0 | 4.0 | 0.00 | 0.00 | 0.00 | 69 | 1005.3 |
| 20260505205212 | 84 | 20 | 3.0 | 3.0 | 0.00 | 0.00 | 0.00 | 71 | 1005.1 |
| 20260505204708 | 84 | 252 | 2.0 | 5.0 | 0.00 | 0.00 | 0.00 | 69 | 1005.3 |
| 20260505204206 | 83 | 282 | 2.0 | 11.0 | 0.00 | 0.00 | 0.00 | 71 | 1005.4 |
| 20260505203703 | 83 | 180 | 0.0 | 4.0 | 0.00 | 0.00 | 0.00 | 73 | 1005.3 |
| 20260505203200 | 82 | 244 | 3.0 | 11.0 | 0.00 | 0.00 | 0.00 | 72 | 1005.4 |
| 20260505202655 | 84 | 17 | 0.0 | 4.0 | 0.00 | 0.00 | 0.00 | 73 | 1005.3 |
| 20260505202152 | 83 | 297 | 0.0 | 7.0 | 0.00 | 0.00 | 0.00 | 72 | 1005.4 |
| 20260505201648 | 83 | 228 | 2.0 | 4.0 | 0.00 | 0.00 | 0.00 | 73 | 1005.4 |
| 20260505201146 | 84 | 89 | 2.0 | 4.0 | 0.00 | 0.00 | 0.00 | 71 | 1005.5 |
| 20260505200644 | 83 | 287 | 4.0 | 6.0 | 0.00 | 0.00 | 0.00 | 72 | 1005.5 |
| 20260505200141 | 83 | 188 | 1.0 | 10.0 | 0.00 | 0.00 | 0.00 | 73 | 1005.5 |
| 20260505195637 | 82 | 136 | 4.0 | 4.0 | 0.00 | 0.00 | 0.00 | 72 | 1005.6 |
| 20260505195134 | 84 | 279 | 2.0 | 6.0 | 0.00 | 0.00 | 0.00 | 71 | 1005.6 |
| 20260505194631 | 83 | 342 | 2.0 | 5.0 | 0.00 | 0.00 | 0.00 | 71 | 1005.3 |
| 20260505194127 | 83 | 74 | 3.0 | 4.0 | 0.00 | 0.00 | 0.00 | 71 | 1005.7 |
| 20260505193624 | 83 | 355 | 3.0 | 4.0 | 0.00 | 0.00 | 0.00 | 71 | 1005.7 |
| 20260505193121 | 82 | 136 | 6.0 | 8.0 | 0.00 | 0.00 | 0.00 | 71 | 1005.8 |
| 20260505192620 | 83 | 283 | 6.0 | 10.0 | 0.00 | 0.00 | 0.00 | 71 | 1005.7 |
| 20260505192117 | 83 | 235 | 0.0 | 5.0 | 0.00 | 0.00 | 0.00 | 72 | 1005.6 |
| 20260505191615 | 82 | 265 | 3.0 | 8.0 | 0.00 | 0.00 | 0.00 | 72 | 1005.9 |
| 20260505191113 | 82 | 178 | 2.0 | 8.0 | 0.00 | 0.00 | 0.00 | 72 | 1005.9 |
| 20260505190608 | 81 | 200 | 3.0 | 5.0 | 0.00 | 0.00 | 0.00 | 74 | 1005.9 |
| 20260505190103 | 82 | 13 | 2.0 | 6.0 | 0.00 | 0.00 | 0.00 | 74 | 1005.9 |
| 20260505185600 | 81 | 94 | 5.0 | 5.0 | 0.00 | 0.00 | 0.00 | 74 | 1005.8 |
| 20260505185057 | 81 | 289 | 4.0 | 7.0 | 0.00 | 0.00 | 0.00 | 74 | 1005.7 |
| 20260505184554 | 81 | 289 | 5.0 | 6.0 | 0.00 | 0.00 | 0.00 | 74 | 1005.9 |
| 20260505184050 | 81 | 235 | 3.0 | 8.0 | 0.00 | 0.00 | 0.00 | 74 | 1005.7 |
| 20260505183547 | 81 | 271 | 5.0 | 9.0 | 0.00 | 0.00 | 0.00 | 75 | 1005.9 |
| 20260505183045 | 80 | 279 | 3.0 | 6.0 | 0.00 | 0.00 | 0.00 | 76 | 1005.8 |
| 20260505182541 | 80 | 302 | 0.0 | 7.0 | 0.00 | 0.00 | 0.00 | 76 | 1005.7 |
| 20260505182038 | 80 | 318 | 2.0 | 7.0 | 0.00 | 0.00 | 0.00 | 76 | 1006.0 |
| 20260505181534 | 81 | 315 | 3.0 | 10.0 | 0.00 | 0.00 | 0.00 | 74 | 1006.0 |
| 20260505181032 | 81 | 238 | 2.0 | 4.0 | 0.00 | 0.00 | 0.00 | 76 | 1005.9 |
| 20260505180527 | 80 | 60 | 2.0 | 6.0 | 0.00 | 0.00 | 0.00 | 75 | 1006.2 |
| 20260505180026 | 80 | 308 | 8.0 | 9.0 | 0.00 | 0.00 | 0.00 | 75 | 1006.1 |
| 20260505175520 | 79 | 275 | 4.0 | 11.0 | 0.00 | 0.00 | 0.00 | 77 | 1006.1 |
| 20260505175017 | 80 | 283 | 7.0 | 8.0 | 0.00 | 0.00 | 0.00 | 76 | 1006.2 |
| 20260505174514 | 78 | 305 | 1.0 | 4.0 | 0.00 | 0.00 | 0.00 | 78 | 1006.2 |
| 20260505174010 | 79 | 246 | 4.0 | 11.0 | 0.00 | 0.00 | 0.00 | 79 | 1006.4 |
| 20260505173507 | 79 | 332 | 2.0 | 5.0 | 0.00 | 0.00 | 0.00 | 78 | 1006.4 |
| 20260505173004 | 78 | 287 | 1.0 | 5.0 | 0.00 | 0.00 | 0.00 | 79 | 1006.4 |
| 20260505172503 | 78 | 300 | 2.0 | 6.0 | 0.00 | 0.00 | 0.00 | 78 | 1006.4 |
| 20260505172002 | 79 | 51 | 1.0 | 5.0 | 0.00 | 0.00 | 0.00 | 78 | 1006.3 |
| 20260505171458 | 79 | 123 | 2.0 | 4.0 | 0.00 | 0.00 | 0.00 | 78 | 1006.3 |
| 20260505170955 | 78 | 309 | 3.0 | 9.0 | 0.00 | 0.00 | 0.00 | 79 | 1006.5 |
| 20260505170452 | 77 | 243 | 3.0 | 7.0 | 0.00 | 0.00 | 0.00 | 79 | 1006.5 |
| 20260505165948 | 77 | 357 | 2.0 | 11.0 | 0.00 | 0.00 | 0.00 | 80 | 1006.4 |
| 20260505165443 | 77 | 266 | 1.0 | 5.0 | 0.00 | 0.00 | 0.00 | 81 | 1006.6 |
| 20260505164939 | 77 | 293 | 4.0 | 6.0 | 0.00 | 0.00 | 0.00 | 81 | 1006.6 |
| 20260505164436 | 76 | 216 | 1.0 | 6.0 | 0.00 | 0.00 | 0.00 | 82 | 1006.4 |
| 20260505163934 | 76 | 283 | 2.0 | 7.0 | 0.00 | 0.00 | 0.00 | 81 | 1006.5 |
| 20260505163433 | 76 | 158 | 2.0 | 10.0 | 0.00 | 0.00 | 0.00 | 81 | 1006.5 |
| 20260505162931 | 76 | 222 | 2.0 | 9.0 | 0.00 | 0.00 | 0.00 | 81 | 1006.5 |
| 20260505162427 | 76 | 336 | 3.0 | 7.0 | 0.00 | 0.00 | 0.00 | 82 | 1006.6 |
| 20260505161924 | 75 | 330 | 2.0 | 4.0 | 0.00 | 0.00 | 0.00 | 83 | 1006.6 |
| 20260505161420 | 75 | 191 | 4.0 | 5.0 | 0.00 | 0.00 | 0.00 | 83 | 1006.6 |
| 20260505160918 | 75 | 251 | 5.0 | 13.0 | 0.00 | 0.00 | 0.00 | 83 | 1006.7 |
| 20260505160416 | 75 | 139 | 5.0 | 5.0 | 0.00 | 0.00 | 0.00 | 83 | 1006.8 |
| 20260505153355 | 73 | 61 | 3.0 | 5.0 | 0.00 | 0.00 | 0.00 | 85 | 1006.4 |
| 20260505152852 | 73 | 287 | 0.0 | 3.0 | 0.00 | 0.00 | 0.00 | 86 | 1006.5 |
| 20260505152349 | 73 | 283 | 2.0 | 4.0 | 0.00 | 0.00 | 0.00 | 86 | 1006.5 |
| 20260505151849 | 73 | 147 | 3.0 | 6.0 | 0.00 | 0.00 | 0.00 | 86 | 1006.6 |
| 20260505151346 | 73 | 310 | 3.0 | 5.0 | 0.00 | 0.00 | 0.00 | 85 | 1006.6 |